Wind_Speed
16 15 14 15 16 18 18 19 19 18 16 15 14 12 11 11 10 10 9 10 9 10 10 10 9 8 9 9 10 10 9 6 7 7 6 5 5 4 4 4 4 4 6
20 20 16 16 17 17 17 19 20 20 19 18 15 13 13 13 12 12 11 10 7 9 9 10 11 10 7 7 9 9 5 6 6 5 6 5 6 5 4 5 6 7 6
27 28 23 20 19 16 15 16 18 21 23 22 19 16 15 15 17 14 12 11 10 10 10 10 10 10 9 9 8 9 7 5 4 6 8 8 7 7 7 8 7 8 8
29 33 27 24 20 17 16 16 16 19 23 22 21 20 19 17 16 16 15 13 13 12 12 11 11 10 10 10 11 9 10 8 8 7 7 9 9 8 9 11 11 11 10
28 33 32 30 26 23 20 18 18 19 20 20 20 19 18 18 16 16 17 16 15 14 15 14 12 13 12 10 11 11 15 12 12 11 12 9 11 11 12 12 12 12 12
31 27 27 30 32 29 24 22 21 20 21 20 20 20 19 18 18 19 18 17 17 17 18 16 14 14 14 14 14 11 17 16 14 15 12 11 12 12 14 16 15 14 14
33 34 32 32 30 29 26 27 24 23 24 25 24 24 22 21 21 21 18 18 19 19 19 16 15 15 17 18 20 19 18 17 17 18 15 14 15 16 17 16 18 17 16
28 29 32 28 27 27 28 25 27 25 24 25 22 24 24 22 20 21 19 18 18 20 20 18 16 17 20 19 20 20 20 20 20 17 16 17 18 19 18 17 17 17 17
35 33 33 32 31 30 29 26 25 28 28 25 22 24 24 22 21 19 16 20 22 24 24 24 24 28 28 24 23 23 23 24 18 17 19 19 19 16 16 18 20 20 20
25 29 29 27 32 27 31 29 30 30 26 26 25 24 21 18 18 21 23 24 25 26 24 29 33 33 30 30 27 26 23 19 17 17 16 16 17 19 22 24 25 25 26
23 18 21 23 21 26 26 26 22 22 28 26 22 22 23 21 22 24 25 26 27 29 30 31 24 24 27 27 30 28 23 20 21 21 19 19 21 21 20 18 16 16 22
5 13 15 16 12 14 16 12 14 22 19 13 19 16 6 11 11 9 9 11 12 8 12 16 13 14 14 16 15 19 17 19 16 15 17 20 19 15 13 10 15 18 18
13 10 12 14 9 7 5 6 8 8 4 2 4 7 7 9 12 9 8 9 8 9 12 13 12 11 12 14 14 11 10 12 13 13 12 12 12 16 17 17 17 17 21
5 4 4 4 4 4 3 4 3 4 0 1 3 3 5 5 5 8 8 9 10 9 9 9 7 5 5 6 6 8 9 9 10 11 12 13 12 14 14 13 13 13 13
2 3 4 4 3 3 2 1 1 2 5 8 9 6 2 3 2 3 3 5 6 6 7 8 8 8 7 8 9 9 10 10 10 11 12 12 12 11 11 11 11 11 11
3 2 2 2 3 3 3 2 1 2 2 3 4 5 7 9 9 9 8 8 9 10 10 10 10 10 10 10 10 9 9 9 9 9 9 9 8 9 9 9 9 9 10
2 2 2 3 2 1 1 1 2 0 2 4 6 7 8 9 9 8 8 7 7 6 6 7 7 7 7 7 7 7 7 6 6 6 7 7 7 8 8 8 9 10 10
3 3 2 1 0 0 0 1 0 1 2 2 2 4 5 6 6 7 6 5 5 5 5 4 4 4 5 5 5 5 5 6 6 6 6 7 7 7 8 8 9 9 11
3 3 3 3 2 1 1 1 1 2 3 3 2 3 4 4 3 4 4 5 5 5 5 5 5 5 6 6 7 7 7 7 8 8 8 8 8 8 8 10 12 13 13
5 4 4 2 1 1 1 1 1 1 1 1 1 3 4 4 3 2 3 5 7 9 9 8 8 8 8 9 9 9 9 9 9 10 10 10 10 11 12 13 14 14 14
2 2 2 1 0 1 2 2 1 1 1 2 3 3 4 5 6 8 8 8 8 7 9 10 10 9 10 11 12 12 12 11 11 11 12 13 13 14 15 14 13 14 15
2 3 3 2 2 2 3 3 3 4 4 5 6 7 8 9 9 9 9 9 9 9 9 9 10 9 9 10 10 11 11 12 12 13 13 14 14 14 13 13 13 13 13
5 6 5 5 4 4 4 4 4 5 6 6 7 7 8 9 9 10 12 12 10 9 9 10 10 10 10 10 10 12 12 13 15 16 15 14 13 13 13 12 11 11 11
8 8 8 7 7 8 8 8 8 9 10 11 10 10 10 11 10 11 13 15 15 15 15 15 16 15 15 15 13 14 13 12 11 10 13 12 11 11 12 12 12 12 11
11 10 9 9 10 12 12 13 14 13 11 11 12 10 17 16 16 16 16 15 17 22 19 20 18 20 23 22 21 18 20 17 15 15 12 9 9 10 14 14 13 11 10
13 12 12 13 13 14 15 16 15 12 14 18 18 16 18 20 17 20 17 19 20 23 22 21 23 24 27 28 24 25 27 27 15 11 11 11 14 14 13 12 9 9 12
Wind_Direction
236 230 224 222 219 223 222 217 217 222 224 226 233 243 255 258 259 269 281 272 257 271 279 279 288 290 307 320 320 313 316 312 307 314 325 342 338 316 306 338 340 350 340
229 238 236 230 223 220 226 227 226 219 219 223 233 250 261 256 259 261 273 280 270 268 283 291 287 288 293 309 324 331 327 313 315 310 303 307 327 309 303 309 333 319 300
222 237 235 241 232 227 231 238 236 231 230 232 238 248 257 259 260 262 264 265 267 265 269 280 275 283 288 285 301 302 296 275 284 307 296 300 295 293 296 294 302 299 291
227 230 240 240 239 236 237 245 247 243 240 240 242 244 251 252 252 260 264 261 265 267 271 275 279 276 273 280 279 285 285 269 262 282 294 295 292 290 289 289 295 294 286
232 233 238 230 233 239 240 249 252 249 248 245 248 247 249 253 255 260 267 271 272 269 269 272 274 269 271 280 289 286 274 266 276 293 279 279 286 288 289 289 289 289 292
225 230 227 233 241 238 245 244 252 255 252 250 252 254 254 254 260 260 264 268 273 274 274 272 276 265 270 281 290 286 269 277 287 285 286 283 286 287 293 290 291 291 288
231 235 237 233 238 243 248 243 248 258 260 252 253 257 254 256 256 260 266 271 272 271 267 266 270 269 273 270 277 284 289 256 269 272 274 285 287 284 286 286 277 282 285
232 231 229 232 238 245 245 243 244 248 258 254 255 254 253 250 253 257 262 269 271 271 265 259 262 274 276 278 281 283 287 277 262 263 269 275 282 286 286 284 282 283 287
235 241 234 246 239 244 245 243 252 247 249 244 247 253 246 252 250 257 260 262 266 264 259 261 270 274 273 275 277 282 287 286 262 264 275 273 280 283 286 288 290 289 289
221 235 236 236 246 243 242 244 248 244 239 249 246 251 238 246 256 261 265 273 271 264 270 264 267 269 272 271 271 278 283 263 263 264 266 276 282 288 283 285 282 281 283
227 228 223 230 236 234 242 239 236 232 238 240 246 248 253 257 264 278 265 264 264 269 263 265 267 274 276 272 270 275 270 263 266 263 266 275 286 283 282 296 294 290 290
139 153 171 178 197 206 213 203 204 229 239 262 240 242 233 254 238 240 251 247 237 245 256 261 263 275 269 265 266 268 266 269 274 281 282 284 285 286 288 280 284 287 285
82 66 67 95 83 54 54 84 68 65 89 189 265 247 224 234 228 232 256 242 236 262 271 268 271 265 264 267 266 272 275 276 279 280 280 277 277 284 290 290 284 294 298
102 90 89 144 168 167 179 168 161 171 194 199 212 222 226 222 240 253 265 269 261 267 276 283 287 277 257 261 266 268 270 273 276 273 280 284 288 296 302 302 300 301 301
152 117 124 145 157 163 169 160 134 187 261 270 290 306 296 268 235 251 263 275 271 268 268 269 272 274 275 273 270 269 268 273 278 282 288 291 291 293 295 299 301 304 307
126 124 143 144 143 147 149 161 222 261 221 228 243 251 253 255 257 262 262 261 266 268 269 272 276 278 277 274 274 278 281 281 281 281 284 286 290 294 297 302 305 308 312
136 116 125 142 124 86 60 141 139 187 275 286 286 286 289 290 289 287 283 278 275 275 274 270 269 269 271 272 271 269 275 283 287 287 288 294 300 306 307 309 312 312 316
164 170 181 239 1 74 60 38 105 163 182 206 248 267 279 285 285 283 284 287 285 276 269 267 268 267 269 271 275 277 272 272 275 280 283 287 291 296 299 302 307 313 316
117 139 137 134 127 120 95 83 7 345 334 319 270 221 215 220 245 271 276 272 266 262 264 269 274 275 274 275 278 278 279 279 279 279 281 285 286 289 295 303 307 309 309
114 101 87 83 110 158 184 218 281 309 310 271 282 300 302 295 270 232 249 276 289 290 286 283 283 287 290 290 289 287 286 286 284 284 285 286 291 295 299 299 298 299 302
103 87 81 96 49 328 320 313 303 275 263 271 282 275 270 276 283 294 300 302 297 289 290 292 291 291 291 290 288 285 283 281 279 281 283 287 289 291 291 290 293 299 302
229 257 260 275 302 303 286 285 283 276 271 280 280 281 284 284 287 290 291 294 297 297 294 290 286 284 283 283 283 288 289 286 284 286 286 286 286 283 284 292 297 299 302
254 259 259 266 265 267 283 284 274 270 274 280 285 295 297 293 295 299 295 293 295 295 295 300 302 292 288 285 290 293 300 294 287 280 276 277 281 282 283 287 293 302 312
250 255 256 260 258 261 257 257 266 268 273 282 295 302 299 306 299 298 281 280 283 297 295 296 294 285 287 292 292 299 290 287 279 292 285 275 276 281 284 291 297 307 310
253 254 257 261 262 263 260 261 267 272 287 279 264 269 293 293 294 307 296 265 266 274 260 263 270 290 291 290 290 292 294 291 297 287 278 259 278 282 292 287 291 296 297
245 255 259 265 266 264 265 267 271 272 269 266 273 277 291 295 283 293 276 282 276 263 274 270 271 276 264 272 280 278 287 271 270 280 275 298 288 287 277 290 272 297 308
Height
3186 3188 3189 3191 3192 3195 3198 3199 3201 3202 3204 3206 3208 3209 3209 3209 3210 3211 3212 3212 3213 3213 3212 3212 3213 3213 3212 3212 3212 3211 3210 3210 3211 3210 3210 3209 3209 3209 3209 3208 3208 3209 3209
3183 3185 3187 3188 3189 3191 3194 3196 3198 3199 3200 3202 3204 3205 3206 3206 3207 3208 3209 3210 3210 3210 3210 3210 3210 3211 3211 3210 3210 3210 3209 3208 3209 3208 3208 3207 3207 3208 3208 3208 3207 3207 3207
3178 3181 3183 3185 3187 3189 3191 3193 3195 3196 3198 3199 3199 3201 3202 3203 3205 3206 3207 3207 3207 3207 3207 3208 3208 3208 3209 3208 3207 3207 3208 3207 3207 3206 3206 3205 3205 3206 3206 3206 3205 3205 3204
3171 3175 3178 3181 3183 3185 3187 3188 3191 3192 3193 3194 3195 3198 3197 3199 3201 3202 3204 3204 3203 3204 3204 3205 3205 3206 3206 3206 3205 3205 3205 3205 3204 3203 3203 3203 3203 3203 3204 3203 3203 3202 3202
3164 3167 3171 3174 3177 3179 3182 3184 3186 3187 3189 3190 3192 3193 3194 3196 3197 3198 3198 3199 3200 3200 3200 3201 3203 3202 3201 3202 3202 3202 3202 3202 3201 3199 3198 3199 3200 3200 3200 3201 3200 3200 3200
3158 3161 3165 3167 3172 3174 3176 3179 3181 3182 3183 3185 3187 3188 3189 3191 3192 3193 3194 3195 3196 3196 3196 3198 3198 3198 3197 3198 3199 3198 3198 3198 3197 3197 3196 3196 3196 3196 3196 3196 3197 3197 3196
3151 3155 3158 3161 3163 3167 3170 3173 3175 3177 3179 3181 3182 3183 3184 3186 3187 3188 3190 3190 3192 3193 3193 3194 3194 3194 3193 3194 3195 3194 3193 3192 3194 3193 3193 3192 3192 3192 3192 3192 3192 3192 3192
3145 3148 3152 3155 3158 3160 3164 3166 3168 3172 3174 3175 3176 3178 3180 3181 3182 3183 3184 3186 3187 3188 3188 3189 3190 3189 3190 3189 3189 3189 3188 3188 3188 3189 3189 3188 3189 3188 3188 3188 3187 3187 3186
3137 3142 3145 3148 3150 3153 3157 3158 3161 3164 3167 3169 3170 3172 3174 3176 3177 3179 3179 3180 3181 3183 3183 3184 3184 3185 3185 3184 3184 3184 3183 3183 3182 3183 3185 3184 3184 3183 3183 3183 3183 3182 3182
3131 3134 3138 3139 3142 3146 3149 3151 3153 3157 3160 3162 3163 3167 3168 3170 3171 3173 3174 3174 3174 3175 3175 3176 3177 3177 3178 3177 3177 3177 3177 3177 3178 3178 3179 3179 3179 3179 3179 3178 3177 3176 3175
3127 3128 3129 3134 3138 3140 3142 3145 3148 3150 3153 3156 3156 3160 3162 3163 3165 3166 3167 3167 3168 3169 3169 3170 3170 3169 3169 3170 3170 3171 3171 3170 3172 3172 3172 3173 3173 3172 3172 3171 3170 3169 3169
3122 3123 3124 3127 3133 3133 3138 3139 3142 3145 3149 3149 3150 3153 3153 3156 3159 3161 3160 3161 3162 3163 3163 3164 3163 3164 3164 3163 3164 3164 3166 3165 3165 3167 3167 3168 3167 3168 3167 3166 3166 3166 3165
3129 3129 3128 3129 3132 3135 3137 3139 3141 3143 3145 3149 3151 3152 3153 3154 3156 3158 3160 3160 3160 3159 3159 3159 3159 3160 3161 3160 3161 3161 3162 3163 3162 3162 3163 3163 3163 3163 3162 3161 3162 3161 3161
3131 3132 3133 3135 3137 3140 3141 3142 3143 3146 3148 3149 3150 3151 3152 3153 3154 3155 3156 3157 3157 3157 3158 3158 3158 3158 3158 3158 3158 3158 3159 3159 3159 3159 3159 3158 3159 3158 3157 3156 3156 3155 3155
3132 3134 3135 3137 3139 3140 3141 3143 3145 3146 3148 3149 3150 3151 3151 3152 3152 3153 3153 3154 3154 3155 3156 3156 3156 3156 3156 3156 3156 3156 3156 3156 3155 3155 3155 3154 3154 3154 3153 3152 3151 3150 3150
3131 3133 3136 3137 3137 3139 3140 3142 3144 3145 3146 3147 3149 3150 3150 3150 3150 3149 3150 3150 3151 3151 3152 3152 3152 3152 3152 3152 3152 3151 3151 3151 3151 3151 3150 3151 3150 3149 3149 3148 3148 3147 3146
3132 3134 3135 3137 3137 3137 3138 3141 3141 3143 3144 3144 3145 3146 3147 3148 3148 3148 3148 3149 3149 3149 3149 3150 3150 3150 3150 3150 3150 3150 3150 3148 3148 3148 3148 3148 3147 3147 3147 3146 3145 3145 3143
3132 3134 3135 3136 3136 3137 3138 3139 3140 3141 3142 3142 3143 3144 3145 3145 3146 3146 3147 3147 3147 3147 3148 3148 3148 3148 3148 3148 3147 3147 3147 3147 3146 3146 3145 3145 3145 3144 3143 3143 3142 3141 3140
3131 3132 3133 3134 3135 3136 3137 3138 3139 3141 3142 3142 3143 3143 3143 3143 3144 3145 3146 3147 3147 3146 3146 3146 3146 3146 3146 3146 3145 3145 3145 3145 3144 3143 3142 3143 3142 3141 3141 3140 3139 3138 3137
3130 3131 3132 3133 3134 3135 3136 3138 3139 3139 3140 3141 3142 3143 3143 3144 3143 3143 3144 3145 3145 3145 3145 3144 3144 3144 3144 3143 3142 3143 3142 3142 3141 3141 3140 3139 3140 3139 3138 3137 3136 3135 3134
3129 3130 3131 3132 3133 3135 3136 3137 3138 3138 3140 3141 3142 3142 3141 3141 3142 3143 3143 3142 3141 3140 3141 3142 3142 3140 3140 3140 3140 3140 3139 3138 3137 3136 3137 3136 3135 3135 3135 3135 3133 3132 3130
3128 3130 3131 3131 3132 3133 3135 3136 3137 3138 3139 3140 3141 3140 3140 3140 3140 3140 3139 3139 3139 3139 3138 3138 3138 3138 3136 3136 3136 3135 3135 3135 3134 3132 3132 3131 3131 3131 3131 3130 3129 3129 3127
3128 3129 3129 3130 3131 3133 3133 3134 3136 3136 3137 3137 3138 3137 3137 3139 3138 3138 3137 3137 3137 3137 3136 3135 3135 3134 3134 3134 3132 3131 3131 3131 3129 3128 3128 3127 3127 3127 3127 3126 3125 3125 3123
3126 3128 3129 3129 3130 3131 3133 3134 3135 3135 3135 3135 3136 3135 3136 3137 3136 3136 3135 3134 3134 3134 3134 3133 3133 3132 3131 3131 3129 3128 3128 3127 3125 3125 3124 3122 3122 3122 3122 3122 3121 3120 3119
3124 3125 3126 3127 3129 3130 3130 3131 3131 3131 3132 3132 3132 3133 3133 3133 3132 3131 3130 3130 3130 3130 3128 3128 3128 3127 3126 3125 3124 3123 3122 3122 3121 3120 3118 3118 3118 3118 3118 3117 3116 3116 3115
3120 3122 3123 3124 3125 3125 3126 3126 3127 3127 3128 3127 3129 3128 3127 3127 3127 3126 3125 3125 3124 3124 3123 3123 3122 3121 3119 3118 3117 3116 3116 3115 3116 3114 3114 3113 3113 3112 3112 3113 3113 3112 3111